Current weather by "City, St" or "zip code"  
 

Current Conditions: New Orleans, New Orleans Lakefront Airport, LA

Fair


68.0 F

Last Updated on Oct 31 2020, 1:53 pm CDT
Humidity: 59%
Wind Speed: NW 5.8 mph
Barometer 30.20 in
Dewpoint: 53.1 F
Visibility: 10.00 mi
Precip: --
Heat Index: NA
Wind Chill: NA
Current conditions at:

New Orleans, New Orleans Lakefront Airport, LA (KNEW)

Lat: 30.04944 Lon: 90.02889

Local Radar Image active severe weather and emergency alerts image image weather storm and storm spotter reports image weather observation monitoring service image
Local
Radar
Active
Alerts
Storm Reports Obs
Monitoring

Sign-up For Email & Text Message Weather Alert Notification Services



Advertise Here

Observation History for New Orleans, New Orleans Lakefront Airport, LA


Time Wind
(mph)
Vis
(mi)
Weather Precip (in) Temperature (F) Relative
Humidity
Wind
Chill
(F)
Heat
Index
(F)
Pressure
Air Dwpt altimeter
(in)
sea level
(mb)
Rmks
1:53 pm CDT NW 5.8 10.00 Fair -- 68.0 53.1 59% NA NA 30.20 1021.9
12:53 pm CDT NW 6.9 10.00 Fair -- 67.0 53.1 61% NA NA 30.23 1022.9
11:53 am CDT N 8.1 10.00 Fair -- 66.0 53.1 63% NA NA 30.25 1023.5
10:53 am CDT N 8.1 10.00 Fair -- 64.0 53.1 68% NA NA 30.25 1023.7
9:53 am CDT NE 6.9 10.00 Fair -- 61.0 52.0 72% 60 NA 30.25 1023.7
8:53 am CDT E 10.4 10.00 A Few Clouds -- 59.0 51.1 75% 57 NA 30.24 1023.4
7:53 am CDT NE 11.5 10.00 Overcast -- 58.0 50.0 75% 56 NA 30.24 1023.2
6:53 am CDT NE 12.7 10.00 Overcast -- 58.0 50.0 75% 55 NA 30.23 1023.1
5:53 am CDT NE 10.4 10.00 Overcast -- 58.0 50.0 75% 56 NA 30.22 1022.6
4:53 am CDT NE 11.5 10.00 Overcast -- 58.0 48.9 72% 56 NA 30.21 1022.3
3:53 am CDT E 5.8 10.00 Partly Cloudy -- 56.0 48.0 75% 55 NA 30.21 1022.3
2:53 am CDT NE 13.8 10.00 Fair -- 58.0 46.9 67% 55 NA 30.21 1022.4
1:53 am CDT NULL Fair -- NULL % NA NA 30.21 1022.5
12:53 am CDT NULL Fair -- NULL % NA NA 30.21 1022.5
11:53 pm CDT NULL Fair -- NULL % NA NA 30.22 1022.8
10:53 pm CDT NULL Fair -- NULL % NA NA 30.22 1022.8
9:53 pm CDT NULL Fair -- NULL % NA NA 30.21 1022.5

Regional Weather Observation


New Orleans, New Orleans International Airport, LA (KMSY)

A Few Clouds
68.0 F

Hammond, Hammond Municipal Airport, LA (KHDC)

Fair
68.0 F

New Orleans Naval Air Station - Alvin Callender Field, LA (KNBG)

A Few Clouds
71.0 F

Bogalusa, George R Carr Memorial Air Field, LA (KBXA)

Fair
70.0 F

Bay St. Louis, Stennis International Airport, MS (KHSA)

NULL
66.0 F

Houma-Terrebonne Airport, LA (KHUM)

Fair
70.0 F